Location: Begas
(41.3319°N, 1.9226°E)
Time: 22:35:02
(UTC+00:00)

Daily predictions for brighter satellites

Satellite Brightness Start Highest point End
(mag) Time Altitude Azimuth Time Altitude Azimuth Time Altitude Azimuth
Cosmos 1709 Rocket 4.4 18:00:21 10° SSW 18:06:33 71° W 18:12:42 10° N
Okean O Rocket 1.7 18:07:12 10° SSE 18:11:34 83° WSW 18:15:58 10° NNW
Cosmos 2181 Rocket 4.0 18:05:22 10° N 18:11:34 74° E 18:17:51 10° SSE
Feng Yun 1-1 Rocket 4.3 18:06:21 10° SSE 18:11:36 57° ENE 18:16:54 10° N
CZ-4 R/B 1.9 18:08:29 10° SE 18:12:00 35° ENE 18:15:31 10° N
USA 215 4.1 18:06:43 10° E 18:12:32 35° NNE 18:18:22 10° NW
Cosmos 2297 3.7 18:08:22 10° S 18:13:59 66° ESE 18:19:39 10° NNE
H-2A R/B 2.3 18:11:19 10° S 18:16:18 73° WSW 18:21:28 10° NNW
Okean 2 3.6 18:13:01 10° N 18:17:00 49° E 18:20:57 10° SSE
Cosmos 1400 Rocket 3.4 18:14:01 10° SSE 18:17:45 35° E 18:21:28 10° NNE
YAOGAN 1 2.9 18:13:55 10° SE 18:18:01 44° ENE 18:22:08 10° N
SJ 16-02 2.7 18:21:55 10° SE 18:24:58 19° E 18:28:02 10° NE
Cosmos 1674 Rocket 3.5 18:20:47 10° N 18:25:06 68° E 18:29:23 10° SSE
Cosmos 1674 3.9 18:22:14 10° NNE 18:25:09 21° ENE 18:28:04 10° SE
Cosmos 2184 Rocket 4.1 18:20:51 10° S 18:27:04 61° E 18:33:15 10° NNE
CZ-4C R/B 4.2 18:24:38 10° N 18:28:07 48° WNW 18:31:35 10° SSW
HJ-1C 3.7 18:26:48 10° SSE 18:29:55 42° ENE 18:33:01 10° N
Meteor 1-21 4.2 18:26:05 10° N 18:31:47 86° E 18:37:23 10° S
CZ-4B R/B 4.4 18:27:02 10° S 18:32:15 47° W 18:37:37 10° NNW
Cosmos 1707 2.7 18:28:45 10° N 18:32:39 64° E 18:36:30 10° SSE
COSMO-SKYMED 1 3.9 18:29:42 10° N 18:33:51 44° WNW 18:37:58 10° SW
NOSS 3-2 (A) 4.5 18:36:53 10° SSE 18:40:24 18° ESE 18:44:09 10° ENE
Cosmos 1626 3.4 18:38:52 10° NNE 18:41:45 21° ENE 18:43:02 18° ESE
OBJECT-B 2.4 18:43:08 17° ENE 18:43:23 17° ENE 18:45:31 10° NNE
KORONAS-FOTON 4.2 18:41:07 10° N 18:44:40 38° ENE 18:48:12 10° SSE
Cosmos 2154 Rocket 4.1 18:40:10 10° S 18:46:22 60° E 18:52:36 10° NNE
Cosmos 1503 Rocket 4.3 18:42:38 10° SSW 18:47:49 72° WNW 18:53:01 10° NNE
MetOp-A 4.4 18:43:50 10° SE 18:48:57 49° ENE 18:54:06 10° N
Cosmos 1340 3.4 18:45:29 10° NNW 18:49:10 54° W 18:52:50 10° S
Atlas Centaur 2 3.9 18:42:53 10° SW 18:50:21 37° S 18:56:04 17° ESE
In-Cosmos 22 4.0 18:45:03 10° N 18:50:21 85° E 18:55:40 10° S
Geosat 3.9 18:45:25 10° NNE 18:50:28 84° ESE 18:55:29 10° SSW
Cosmos 1733 4.1 18:48:21 10° SSE 18:51:33 27° E 18:54:48 10° NNE
SL-08 RB Rocket 3.9 18:47:52 10° S 18:52:19 73° WSW 18:56:48 10° NNW
Cosmos 1184 Rocket 4.1 18:50:42 10° NNE 18:53:05 22° ENE 18:53:05 22° ENE
H-2A R/B 2.2 18:50:23 10° N 18:54:34 75° WNW 18:58:40 10° SSW
Cosmos 1782 Rocket 3.7 18:51:02 10° SSE 18:55:19 49° E 18:59:36 10° NNE
Meteor 1-12 Rocket 4.5 18:51:54 10° S 18:57:42 53° E 19:03:30 10° NNE
Cosmos 1777 Rocket 4.0 18:52:35 10° S 18:57:44 60° ESE 19:02:53 10° NNE
Nadezhda 3 Rocket 3.9 18:56:59 10° N 19:03:07 69° E 19:09:16 10° SSE
ISS -1.2 19:01:07 10° NW 19:03:11 15° N 19:05:15 10° NNE
CSL-04 Rocket 3.7 18:58:16 10° SSE 19:03:30 61° ENE 19:08:51 10° N
PSLV R/B 4.1 18:59:37 10° NNE 19:03:39 49° E 19:07:37 10° S
COSMOS 2455 3.1 18:59:17 10° NNW 19:05:19 73° WSW 19:11:19 10° SSE
Cosmos 1346 Rocket 3.0 19:02:37 10° N 19:06:33 50° ENE 19:08:39 24° SE
Cosmos 1025 Rocket 3.8 19:09:46 10° NNE 19:13:39 31° ENE 19:13:45 31° E
Okean-O 2.8 19:11:52 10° S 19:16:17 73° WSW 19:20:43 10° NNW
Cosmos 1238 Rocket 4.4 19:11:12 10° SSW 19:17:32 63° W 19:23:11 10° N
SeaSat 1 2.8 19:22:15 36° ESE 19:23:43 47° ENE 19:28:27 10° NNW
Cosmos 1975 Rocket 2.9 19:21:14 10° N 19:25:41 74° E 19:27:53 29° SSE
Cosmos 773 Rocket 4.2 19:24:52 10° NNW 19:30:07 71° WSW 19:34:23 16° S
Cosmos 1300 Rocket 3.6 19:29:52 50° ESE 19:30:26 54° E 19:34:42 10° NNE
ATLAS CENTAUR R/B 2.6 19:27:24 10° NW 19:31:57 47° WSW 19:35:12 19° S
Resurs 01 Rocket 3.4 19:33:41 18° NE 19:33:41 18° NE 19:35:25 10° NNE
Cosmos 1943 Rocket 4.0 19:31:18 10° WSW 19:36:11 31° WNW 19:41:10 10° N
Cosmos 2341 Rocket 3.9 19:30:02 10° S 19:36:18 73° E 19:42:40 10° NNE
BREEZE-M DEB (TANK) 3.9 19:35:18 10° WNW 19:36:20 25° WSW 19:36:20 25° WSW
Cosmos 2366 rocket 4.1 19:35:46 35° SE 19:37:48 47° E 19:43:39 10° NNE
CZ-4B R/B 3.2 19:35:31 10° N 19:38:14 29° WNW 19:41:00 10° SW
USA 186 2.7 19:39:12 40° NNW 19:39:12 40° NNW 19:41:21 10° NNW
Meteor 1-24 Rocket 4.2 19:33:28 10° N 19:38:11 37° ENE 19:38:11 37° ENE
Lacrosse 5 rocket 1.7 19:34:39 10° NW 19:39:09 67° SW 19:40:04 51° S
Resurs 1-3 4.2 19:39:52 40° NE 19:39:52 40° NE 19:43:21 10° N
Cosmos 1833 4.1 19:41:30 10° NNW 19:47:06 63° ENE 19:47:58 55° ESE
CZ-4 R/B 4.3 19:44:50 10° SW 19:47:07 15° W 19:49:26 10° NW
Cosmos 2218 Rocket 3.9 19:45:03 35° SSE 19:47:31 58° E 19:53:34 10° NNE
Cosmos 1315 Rocket 3.1 19:44:04 10° SSW 19:48:00 65° WNW 19:52:00 10° N
Cosmos 2369 Rocket 3.0 19:42:47 10° SW 19:48:17 51° WNW 19:53:47 10° NNE
APEX 4.2 19:46:57 10° NNW 19:50:35 41° NNE 19:50:35 41° NNE
SJ-6B 3.0 19:53:28 68° SW 19:53:44 71° WSW 19:57:51 10° NNW
MOS 1 4.2 19:54:16 59° ESE 19:54:55 64° ENE 20:00:32 10° N
USA 215 3.2 19:52:49 45° SE 19:55:05 88° SW 20:01:42 10° NW
Ariane Rocket 3.3 19:56:38 50° NE 19:56:38 50° NE 20:00:59 10° N
SL-14 R/B 3.8 19:54:00 10° N 19:57:12 55° NNW 19:57:12 55° NNW
IRS-1A Rocket 4.3 19:59:03 62° ESE 19:59:41 67° ENE 20:05:33 10° N
EO 1 Delta rocket 3.8 20:02:47 83° ENE 20:02:47 83° ENE 20:08:07 10° N
SJ 16-02 2.7 19:59:05 10° SW 20:03:13 38° WNW 20:07:23 10° N
CENTAUR R/B 3.1 19:57:51 10° SSW 20:09:37 11° NE 20:09:58 10° NE
Cosmos 1959 Rocket 4.4 20:01:17 36° S 20:04:03 77° E 20:10:22 10° N
Cosmos 864 Rocket 4.3 20:03:57 45° S 20:06:02 78° E 20:12:14 10° N
Cosmos 1538 Rocket 4.4 20:06:27 10° NNW 20:11:46 63° WSW 20:12:38 54° SSW
Helios 1A Rocket 4.1 20:14:54 39° NNW 20:14:54 39° NNW 20:17:34 10° NNW
OBJECT-B 3.5 20:16:03 19° WNW 20:16:03 19° WNW 20:17:47 10° NW
Cosmos 1626 4.4 20:13:56 10° NW 20:16:51 22° W 20:17:33 21° WSW
USA 238 DEB 4.1 20:14:11 10° SSW 20:27:40 - NE 20:18:26 44° SSW
USA 238 4.2 20:14:18 10° SSW 20:27:52 - NE 20:18:18 41° SSW
Meteor 1-22 Rocket 4.3 20:25:16 67° WSW 20:25:45 71° WNW 20:31:31 10° N
NOSS 3-2 (A) 3.5 20:24:51 10° SW 20:30:18 68° NW 20:36:36 10° NNE
Meteor 2-5 Rocket 4.0 20:25:54 10° NNW 20:31:22 61° W 20:31:28 61° W
Atlas Centaur 2 3.8 20:31:49 10° WSW 20:38:39 36° SSW 20:38:39 36° SSW
NOSS 3-3 (A) 4.5 20:48:21 10° NW 20:55:49 85° NNW 20:55:49 85° NNW
NOSS 3-3 (C) 4.5 20:48:27 10° NW 20:55:54 85° NNW 20:55:54 85° NNW
SeaSat 1 4.5 21:02:02 22° W 21:02:02 22° W 21:05:17 10° NW
Resurs 01 Rocket 4.3 21:11:15 17° NW 21:11:15 17° NW 21:12:26 10° NNW
USA 281 3.9 21:06:48 10° NNE 21:11:50 49° NNW 21:11:50 49° NNW
Cosmos 2297 Rocket 4.2 21:08:32 10° N 21:10:29 20° N 21:10:29 20° N
Cosmos 2227 Rocket 4.5 21:30:49 10° N 21:32:18 18° N 21:32:18 18° N
CENTAUR R/B 4.4 21:56:39 26° N 21:56:39 26° N 22:00:43 10° NNE
